Location: Copper Breaks State Park
(34.1132°N, 99.7492°W)
Time: 17:05:51

SL-16 R/B - Visible Passes

Search period start: 29 November 2015 00:00
Search period end: 09 December 2015 00:00
Orbit: 985 x 1007 km, 99.2° (Epoch: 29 November)

Date Brightness Start Highest point End Pass type
(mag) Time Alt. Az. Time Alt. Az. Time Alt. Az.
29 Nov 5.0 18:11:27 10° NNW 18:15:20 17° WNW 18:18:55 10° W visible
02 Dec 4.9 17:59:47 10° NNW 18:04:19 21° WNW 18:08:37 10° WSW visible
03 Dec 5.3 18:33:05 10° NW 18:34:46 11° WNW 18:36:00 10° WNW visible
05 Dec 4.6 17:48:16 10° NNW 17:53:18 25° WNW 17:58:09 10° WSW visible
06 Dec 5.0 18:20:39 10° NNW 18:23:48 14° WNW 18:26:34 10° W visible
